Location: F?ge?el
(45.8833°N, 22.5833°E)
Time: 07:52:39
(UTC+00:00)

Cosmos 1943 Rocket - Pass Details

Date: 17 November 2025
Orbit: 812 x 841 km, 71.0° (Epoch: 13 December)

Event Time Altitude Azimuth Distance (km) Brightness Sun altitude
Rises 15:58:40 0° 195° (SSW) 3,372 5.8 -10.9°
Reaches altitude 10° 16:01:07 10° 192° (SSW) 2,439 5.0 -11.3°
Maximum altitude 16:06:39 65° 112° (ESE) 911 2.2 -12.3°
Drops below altitude 10° 16:12:11 10° 31° (NNE) 2,437 4.2 -13.2°
Enters shadow 16:12:45 - 31° (NNE) 2,651 4.4 -13.3°
